Вернуться в каталог

CO3D3

АктивенНаукаSSO
NORAD 64900·PAYLOAD·🇫🇷 France

Запущен Jul 26, 2025 с Guiana Space Centre

Loading…

Ближайшие Пролёты (ближайшие 24 часа)

TLE

СвежийSource: Space-Track

Эпоха: Sep 14, 2026, 12:13 UTC

1 64900U 25156B   26257.50915450  .00003067  00000-0  14475-3 0  9999
2 64900  97.4345 334.9188 0001141 117.7983 242.3367 15.20202706 63104

Отслеживайте CO3D3 в реальном времени с AllMySat

Download on the App Store